CPT4218 PHJH-PHNL

Flight info

Callsign CPT4218
Flight time 0h 30m
Altitude 6000
Route CHAIN SOBOW JULLE5
Aircraft C208/L-VGD/C

Departure

Time 2026-04-21 14:41
Airport Kapalua Airport (PHJH)

Arrival

Time 2026-04-21 15:11
Airport Daniel K. Inouye International Airport (PHNL)
Time Latitude Longitude Altitude Speed Heading
2026-04-21 14:35 20.96254 -156.67474 261 ft 0 kts 246°
2026-04-21 14:35 20.96254 -156.67475 261 ft 0 kts 245°
2026-04-21 14:37 20.96254 -156.67476 261 ft 0 kts 245°
2026-04-21 14:38 20.96253 -156.67476 261 ft 0 kts 245°
2026-04-21 14:38 20.96259 -156.67466 261 ft 2 kts 230°
2026-04-21 14:38 20.96274 -156.67454 261 ft 3 kts 202°
2026-04-21 14:38 20.96242 -156.67460 261 ft 13 kts 196°
2026-04-21 14:39 20.96139 -156.67493 261 ft 12 kts 165°
2026-04-21 14:39 20.96087 -156.67438 261 ft 9 kts 163°
2026-04-21 14:39 20.95977 -156.67495 261 ft 22 kts 214°
2026-04-21 14:39 20.95971 -156.67484 261 ft 8 kts 18°
2026-04-21 14:40 20.95977 -156.67481 261 ft 0 kts 34°
2026-04-21 14:40 20.95978 -156.67481 261 ft 2 kts 34°
2026-04-21 14:40 20.96137 -156.67389 261 ft 63 kts 28°
2026-04-21 14:40 20.96477 -156.67199 274 ft 99 kts 24°
2026-04-21 14:41 20.97395 -156.66721 573 ft 121 kts 21°
2026-04-21 14:41 20.98252 -156.66883 770 ft 139 kts 332°
2026-04-21 14:41 20.98642 -156.67447 965 ft 143 kts 296°
2026-04-21 14:41 20.98589 -156.68493 1272 ft 147 kts 254°
2026-04-21 14:42 20.98384 -156.69075 1462 ft 148 kts 248°
2026-04-21 14:42 20.97982 -156.70116 1725 ft 154 kts 246°
2026-04-21 14:42 20.97577 -156.71185 1989 ft 157 kts 247°
2026-04-21 14:42 20.97199 -156.72280 2247 ft 160 kts 250°
2026-04-21 14:43 20.96935 -156.73437 2514 ft 161 kts 258°
2026-04-21 14:43 20.96796 -156.74640 2772 ft 164 kts 264°
2026-04-21 14:43 20.96742 -156.75862 3028 ft 166 kts 267°
2026-04-21 14:43 20.96737 -156.77105 3282 ft 168 kts 269°
2026-04-21 14:44 20.96758 -156.78359 3536 ft 170 kts 270°
2026-04-21 14:44 20.96795 -156.79630 3790 ft 172 kts 270°
2026-04-21 14:44 20.96839 -156.80910 4042 ft 173 kts 271°
2026-04-21 14:44 20.96887 -156.82200 4294 ft 174 kts 271°
2026-04-21 14:45 20.96897 -156.82467 4346 ft 174 kts 271°
2026-04-21 14:45 20.96937 -156.83485 4544 ft 174 kts 271°
2026-04-21 14:45 20.97045 -156.84780 4793 ft 175 kts 280°
2026-04-21 14:45 20.97364 -156.86028 5047 ft 175 kts 287°
2026-04-21 14:46 20.97736 -156.87275 5298 ft 175 kts 287°
2026-04-21 14:46 20.98102 -156.88515 5549 ft 175 kts 287°
2026-04-21 14:46 20.98457 -156.89762 5787 ft 176 kts 286°
2026-04-21 14:46 20.98805 -156.91019 5929 ft 181 kts 285°
2026-04-21 14:47 20.99028 -156.91836 5978 ft 185 kts 285°
2026-04-21 14:47 20.99377 -156.93132 6000 ft 191 kts 285°
2026-04-21 14:47 20.99748 -156.94521 6004 ft 196 kts 285°
2026-04-21 14:47 21.00123 -156.95933 6003 ft 199 kts 285°
2026-04-21 14:48 21.00501 -156.97364 6000 ft 201 kts 285°
2026-04-21 14:48 21.00881 -156.98803 5996 ft 202 kts 285°
2026-04-21 14:48 21.01262 -157.00251 5993 ft 202 kts 285°
2026-04-21 14:48 21.01638 -157.01681 5991 ft 202 kts 285°
2026-04-21 14:49 21.02018 -157.03129 5988 ft 203 kts 285°
2026-04-21 14:49 21.02400 -157.04587 5986 ft 203 kts 285°
2026-04-21 14:49 21.02782 -157.06047 5984 ft 204 kts 285°
2026-04-21 14:49 21.03164 -157.07506 5983 ft 204 kts 285°
2026-04-21 14:50 21.03547 -157.08968 5981 ft 204 kts 285°
2026-04-21 14:50 21.03928 -157.10427 5980 ft 204 kts 285°
2026-04-21 14:50 21.04306 -157.11873 5979 ft 204 kts 285°
2026-04-21 14:50 21.04688 -157.13335 5979 ft 204 kts 285°
2026-04-21 14:51 21.05070 -157.14798 5978 ft 204 kts 285°
2026-04-21 14:51 21.05452 -157.16259 5978 ft 204 kts 285°
2026-04-21 14:51 21.05832 -157.17716 5989 ft 202 kts 285°
2026-04-21 14:51 21.06207 -157.19156 5992 ft 199 kts 285°
2026-04-21 14:52 21.06578 -157.20578 5993 ft 198 kts 285°
2026-04-21 14:52 21.06942 -157.21974 5994 ft 197 kts 285°
2026-04-21 14:52 21.07309 -157.23382 5995 ft 196 kts 285°
2026-04-21 14:52 21.07675 -157.24786 5995 ft 196 kts 285°
2026-04-21 14:53 21.08042 -157.26196 5995 ft 196 kts 285°
2026-04-21 14:53 21.08408 -157.27601 5995 ft 196 kts 285°
2026-04-21 14:53 21.08773 -157.29005 5995 ft 196 kts 285°
2026-04-21 14:53 21.09138 -157.30410 5995 ft 196 kts 285°
2026-04-21 14:54 21.09504 -157.31817 5994 ft 196 kts 285°
2026-04-21 14:54 21.09869 -157.33221 5994 ft 196 kts 285°
2026-04-21 14:54 21.10233 -157.34623 5993 ft 196 kts 285°
2026-04-21 14:54 21.10593 -157.36010 5993 ft 196 kts 285°
2026-04-21 14:55 21.10958 -157.37416 5992 ft 196 kts 285°
2026-04-21 14:55 21.11322 -157.38819 5991 ft 196 kts 285°
2026-04-21 14:55 21.11686 -157.40222 5990 ft 196 kts 285°
2026-04-21 14:55 21.12050 -157.41626 5989 ft 196 kts 285°
2026-04-21 14:56 21.12414 -157.43031 5988 ft 196 kts 285°
2026-04-21 14:56 21.12779 -157.44439 5986 ft 196 kts 285°
2026-04-21 14:56 21.13143 -157.45841 5985 ft 196 kts 285°
2026-04-21 14:56 21.13503 -157.47232 5984 ft 196 kts 285°
2026-04-21 14:57 21.13866 -157.48636 5982 ft 196 kts 285°
2026-04-21 14:57 21.14230 -157.50044 5980 ft 196 kts 285°
2026-04-21 14:57 21.14593 -157.51448 5979 ft 196 kts 285°
2026-04-21 14:57 21.14957 -157.52854 5977 ft 196 kts 285°
2026-04-21 14:58 21.15321 -157.54263 5971 ft 196 kts 285°
2026-04-21 14:58 21.15685 -157.55673 5965 ft 196 kts 285°
2026-04-21 14:58 21.16049 -157.57081 5962 ft 196 kts 285°
2026-04-21 14:58 21.16413 -157.58488 5961 ft 196 kts 285°
2026-04-21 14:59 21.16775 -157.59894 5959 ft 196 kts 285°
2026-04-21 14:59 21.17134 -157.61284 5958 ft 196 kts 285°
2026-04-21 14:59 21.17378 -157.62232 5957 ft 195 kts 285°
2026-04-21 14:59 21.17624 -157.63187 5956 ft 195 kts 285°
2026-04-21 15:00 21.17944 -157.64427 5955 ft 195 kts 285°
2026-04-21 15:00 21.18144 -157.65203 5954 ft 195 kts 285°
2026-04-21 15:00 21.18320 -157.65888 5954 ft 195 kts 285°
2026-04-21 15:00 21.18680 -157.67285 5953 ft 195 kts 285°
2026-04-21 15:01 21.18905 -157.68157 5952 ft 195 kts 285°
2026-04-21 15:01 21.18907 -157.68167 5952 ft 195 kts 285°
2026-04-21 15:02 21.18945 -157.68312 5952 ft 195 kts 285°
2026-04-21 15:02 21.19303 -157.69705 5865 ft 186 kts 285°
2026-04-21 15:03 21.19635 -157.70993 5611 ft 175 kts 285°
2026-04-21 15:03 21.19949 -157.72212 5359 ft 166 kts 285°
2026-04-21 15:03 21.20250 -157.73381 5110 ft 158 kts 285°
2026-04-21 15:03 21.20536 -157.74496 4863 ft 153 kts 285°
2026-04-21 15:04 21.20816 -157.75584 4617 ft 149 kts 284°
2026-04-21 15:04 21.21089 -157.76647 4374 ft 147 kts 284°
2026-04-21 15:04 21.21357 -157.77694 4132 ft 145 kts 284°
2026-04-21 15:04 21.21624 -157.78736 3892 ft 144 kts 284°
2026-04-21 15:05 21.21887 -157.79759 3655 ft 144 kts 284°
2026-04-21 15:05 21.22301 -157.81374 3281 ft 143 kts 284°
2026-04-21 15:05 21.22564 -157.82399 3041 ft 142 kts 284°
2026-04-21 15:06 21.22830 -157.83436 2801 ft 142 kts 284°
2026-04-21 15:06 21.23090 -157.84451 2565 ft 142 kts 284°
2026-04-21 15:06 21.23349 -157.85465 2329 ft 141 kts 284°
2026-04-21 15:06 21.23606 -157.86465 2094 ft 141 kts 284°
2026-04-21 15:07 21.23864 -157.87474 1857 ft 140 kts 285°
2026-04-21 15:07 21.24121 -157.88477 1619 ft 139 kts 285°
2026-04-21 15:07 21.24377 -157.89478 1390 ft 138 kts 285°
2026-04-21 15:07 21.24625 -157.90447 1237 ft 132 kts 285°
2026-04-21 15:08 21.24858 -157.91358 1154 ft 121 kts 285°
2026-04-21 15:08 21.25073 -157.92201 1154 ft 120 kts 284°
2026-04-21 15:08 21.25303 -157.93117 1223 ft 135 kts 284°
2026-04-21 15:08 21.25560 -157.94129 1210 ft 148 kts 285°
2026-04-21 15:09 21.25845 -157.95234 1195 ft 155 kts 285°
2026-04-21 15:09 21.26321 -157.96251 896 ft 171 kts 327°
2026-04-21 15:09 21.26938 -157.96515 1019 ft 152 kts 340°
2026-04-21 15:09 21.27898 -157.96790 1127 ft 136 kts 351°
2026-04-21 15:10 21.28733 -157.96608 1187 ft 121 kts 48°
2026-04-21 15:10 21.29212 -157.95782 831 ft 135 kts 60°
2026-04-21 15:10 21.29746 -157.94917 486 ft 142 kts 53°
2026-04-21 15:10 21.30359 -157.94150 348 ft 125 kts 49°
2026-04-21 15:11 21.30864 -157.93456 142 ft 112 kts 50°
2026-04-21 15:11 21.31308 -157.92833 37 ft 100 kts 50°
2026-04-21 15:11 21.31699 -157.92279 18 ft 77 kts 54°
2026-04-21 15:11 21.31901 -157.91992 18 ft 34 kts 52°
2026-04-21 15:12 21.31918 -157.91843 18 ft 24 kts 169°
2026-04-21 15:12 21.31844 -157.91769 18 ft 19 kts 79°
2026-04-21 15:12 21.31814 -157.91718 18 ft 2 kts 141°
2026-04-21 15:12 21.31813 -157.91717 18 ft 1 kts 142°
2026-04-21 15:13 21.31782 -157.91693 18 ft 8 kts 143°
2026-04-21 15:13 21.31778 -157.91690 18 ft 0 kts 142°